This demonstration page uses our WeatherBlox Daily Observations layout. Learn more.

Hourly Observations for September 18, 2015

Temp ( °F °C ) Dew Point ( °F °C ) Humidity (%) Winds ( mph kmh ) Pressure ( in mb ) Visibility ( mi km ) Precip ( " mm )
12:15 am 00:15 Clear 59 15.1 49 9.5 69 69 NE 9 15 29.91 1013 10 16.0934 0 0
12:35 am 00:35 Clear 59 15.1 49 9.6 70 70 NE 10 17 29.91 1013 10 16.0934 0 0
12:55 am 00:55 Clear 59 15.1 49 9.5 69 69 NE 10 17 29.91 1013 10 16.0934 0 0
1:15 am 01:15 Clear 58 14.7 49 9.5 71 71 NE 14 22 29.88 1012 10 16.0934 0 0
1:35 am 01:35 Clear 59 15.1 49 9.2 68 68 NE 12 19 29.88 1012 10 16.0934 0 0
1:55 am 01:55 Clear 59 15.1 48 9 67 67 ENE 10 17 29.91 1013 10 16.0934 0 0
2:15 am 02:15 Clear 58 14.5 48 9 70 70 ENE 9 15 29.91 1013 10 16.0934 0 0
2:35 am 02:35 Clear 57 14.1 49 9.2 73 73 NE 10 17 29.91 1013 10 16.0934 0 0
2:55 am 02:55 Clear 57 13.8 49 9.3 74 74 NE 14 22 29.88 1012 10 16.0934 0 0
3:15 am 03:15 Clear 57 13.7 49 9.3 75 75 ENE 13 20 29.88 1012 10 16.0934 0 0
3:35 am 03:35 Clear 57 14 49 9.3 74 74 NNE 16 26 29.88 1012 10 16.0934 0 0
3:55 am 03:55 Clear 56 13.5 49 9.5 77 77 NE 13 20 29.88 1012 10 16.0934 0 0
4:15 am 04:15 Clear 56 13.1 49 9.5 79 79 NNE 14 22 29.85 1011 10 16.0934 0 0
4:35 am 04:35 Partly Cloudy 56 13.5 49 9.6 77 77 NE 9 15 29.88 1012 10 16.0934 0 0
4:40 am 04:40 Mostly Cloudy 56 13.5 49 9.6 77 77 NE 9 15 29.88 1012 10 16.0934 0 0
4:55 am 04:55 Cloudy 57 13.7 49 9.7 77 77 NE 10 17 29.88 1012 10 16.0934 0 0
5:15 am 05:15 Cloudy 58 14.4 50 10 75 75 NE 13 20 29.88 1012 10 16.0934 0 0
5:35 am 05:35 Cloudy 58 14.5 50 10 75 75 NE 16 26 29.88 1012 10 16.0934 0 0
5:55 am 05:55 Cloudy 58 14.6 50 10 74 74 NE 15 24 29.88 1012 10 16.0934 0 0
6:15 am 06:15 Cloudy 58 14.6 50 10.2 75 75 NE 13 20 29.88 1012 10 16.0934 0 0
6:35 am 06:35 Cloudy 58 14.6 50 10.2 75 75 NE 17 28 29.88 1012 10 16.0934 0 0
6:55 am 06:55 Cloudy with Light Rain 58 14.2 51 10.8 80 80 NE 17 28 29.88 1012 10 16.0934 0 0
7:15 am 07:15 Cloudy 57 14 52 11.1 83 83 NNE 14 22 29.88 1012 10 16.0934 0 0
7:35 am 07:35 Cloudy 57 14 52 11.3 84 84 NE 17 28 29.88 1012 10 16.0934 0.03 0.762
7:55 am 07:55 Cloudy with Heavy Rain 56 13.5 53 11.6 88 88 ENE 17 28 29.91 1013 7 11.26538 0.23 5.842
8:15 am 08:15 Cloudy with Light Rain 56 13.2 53 11.5 90 90 NE 20 31 29.88 1012 10 16.0934 0.04 1.016
8:35 am 08:35 Cloudy 56 13.2 53 11.6 90 90 ENE 21 33 29.88 1012 10 16.0934 0.04 1.016
8:55 am 08:55 Cloudy with Light Rain 56 13.3 53 11.7 90 90 E 15 24 29.88 1012 10 16.0934 0.04 1.016
9:15 am 09:15 Cloudy 56 13.2 53 11.8 91 91 NNE 13 20 29.91 1013 10 16.0934 0 0
9:35 am 09:35 Cloudy with Light Rain 56 13.4 54 12 91 91 NE 17 28 29.91 1013 10 16.0934 0 0
9:55 am 09:55 Cloudy 56 13.6 51 10.4 81 81 ENE 16 26 29.88 1012 10 16.0934 0 0
10:15 am 10:15 Cloudy 56 13.6 49 9.7 77 77 ENE 13 20 29.88 1012 10 16.0934 0 0
10:35 am 10:35 Cloudy 57 13.7 50 10.1 79 79 NNE 14 22 29.91 1013 10 16.0934 0 0
10:55 am 10:55 Cloudy with Nearby Thunderstorms 57 14 50 10.1 78 78 NNE 9 15 29.94 1014 10 16.0934 0 0
11:15 am 11:15 Cloudy with Nearby Thunderstorms 58 14.5 51 10.4 77 77 NNE 9 15 29.94 1014 10 16.0934 0 0
11:35 am 11:35 Cloudy 60 15.6 53 11.6 77 77 NNE 13 20 29.91 1013 10 16.0934 0 0
11:55 am 11:55 Cloudy 61 16 53 11.4 74 74 N 9 15 29.94 1014 10 16.0934 0 0
12:15 pm 12:15 Cloudy 60 15.7 54 12 79 79 N 10 17 29.94 1014 10 16.0934 0 0
12:35 pm 12:35 Cloudy 61 16.1 53 11.4 74 74 N 13 20 29.94 1014 10 16.0934 0 0
12:55 pm 12:55 Cloudy 63 17 52 11.3 69 69 N 13 20 29.97 1015 10 16.0934 0 0
1:15 pm 13:15 Cloudy 62 16.7 51 10.4 67 67 N 15 24 29.97 1015 10 16.0934 0 0
1:35 pm 13:35 Mostly Cloudy 63 17.4 51 10.6 65 65 NNE 16 26 29.94 1014 10 16.0934 0 0
1:55 pm 13:55 Partly Cloudy 66 19.1 52 11 60 60 N 14 22 29.97 1015 10 16.0934 0 0
2:15 pm 14:15 Partly Cloudy 67 19.4 51 10.4 56 56 NNE 16 26 29.94 1014 10 16.0934 0 0
2:35 pm 14:35 Partly Cloudy 67 19.3 51 10.6 57 57 NNE 13 20 29.94 1014 10 16.0934 0 0
2:55 pm 14:55 Partly Cloudy 67 19.7 51 10.7 56 56 NNE 14 22 29.88 1012 10 16.0934 0 0
3:15 pm 15:15 Sunny 68 20 51 10.7 55 55 NNE 10 17 29.91 1013 10 16.0934 0 0
3:35 pm 15:35 Sunny 69 20.3 51 10.5 53 53 N 10 17 29.91 1013 10 16.0934 0 0
3:55 pm 15:55 Mostly Cloudy 69 20.7 51 10.6 53 53 NNE 9 15 29.91 1013 10 16.0934 0 0
4:15 pm 16:15 Partly Cloudy 69 20.7 51 10.6 53 53 N 9 15 29.91 1013 10 16.0934 0 0
4:35 pm 16:35 Partly Cloudy 71 21.4 52 11 52 52 N 10 17 29.91 1013 10 16.0934 0 0
4:55 pm 16:55 Partly Cloudy 69 20.8 51 10.8 53 53 N 7 11 29.91 1013 10 16.0934 0 0
5:15 pm 17:15 Sunny 69 20.7 52 11 54 54 N 3 6 29.91 1013 10 16.0934 0 0
5:35 pm 17:35 Sunny 70 21.2 52 10.9 52 52 Calm 29.91 1013 10 16.0934 0 0
5:55 pm 17:55 Sunny 70 20.9 52 10.9 53 53 W 3 6 29.91 1013 10 16.0934 0 0
6:15 pm 18:15 Sunny 70 21.2 50 10.2 50 50 NW 5 7 29.91 1013 10 16.0934 0 0
6:35 pm 18:35 Sunny 69 20.7 51 10.3 51 51 WSW 3 6 29.91 1013 10 16.0934 0 0
6:55 pm 18:55 Sunny 69 20.5 51 10.6 53 53 WSW 5 7 29.91 1013 10 16.0934 0 0
7:15 pm 19:15 Sunny 66 19.1 52 11 60 60 W 6 9 29.94 1014 10 16.0934 0 0
7:35 pm 19:35 Partly Cloudy 65 18.2 52 11.3 64 64 W 7 11 29.97 1015 10 16.0934 0 0
7:55 pm 19:55 Partly Cloudy 65 18.5 45 7.4 49 49 NW 17 28 29.97 1015 10 16.0934 0 0
8:15 pm 20:15 Partly Cloudy 64 17.7 43 6.2 47 47 NNW 14 22 30 1016 10 16.0934 0 0
8:35 pm 20:35 Partly Cloudy 62 16.8 42 5.8 48 48 NNW 15 24 30 1016 10 16.0934 0 0
8:55 pm 20:55 Partly Cloudy 60 15.6 43 5.9 53 53 NNW 14 22 30.06 1018 10 16.0934 0 0
9:15 pm 21:15 Clear 58 14.4 43 6.1 58 58 NNW 16 26 30.06 1018 10 16.0934 0 0
9:35 pm 21:35 Clear 56 13.6 43 6.2 61 61 NNW 16 26 30.09 1019 10 16.0934 0 0
9:55 pm 21:55 Clear 55 12.6 44 6.5 67 67 NNW 13 20 30.12 1020 10 16.0934 0 0
10:15 pm 22:15 Clear 54 12 44 6.5 69 69 NNW 15 24 30.12 1020 10 16.0934 0 0
10:35 pm 22:35 Clear 53 11.4 44 6.5 72 72 NNW 14 22 30.12 1020 10 16.0934 0 0
10:55 pm 22:55 Clear 52 11 44 6.5 74 74 N 13 20 30.12 1020 10 16.0934 0 0
11:15 pm 23:15 Clear 51 10.7 44 6.6 76 76 N 12 19 30.12 1020 10 16.0934 0 0
11:35 pm 23:35 Clear 51 10.5 44 6.6 77 77 NNW 9 15 30.12 1020 10 16.0934 0 0
11:55 pm 23:55 Clear 50 10.2 44 6.5 78 78 NNW 10 17 30.15 1021 10 16.0934 0 0

Powered by AerisWeather